Weather History for KPSX - February, 2013

Change the Weather History Date:

Friday, February 1, 2013

  Actual Average Record
Temperature  
Mean Temperature 60 °F -  
Max Temperature 69 °F 64 °F 77 °F (1974)
Min Temperature 51 °F 48 °F 16 °F (1951)
Degree Days  
Heating Degree Days 5    
Growing Degree Days 10 (Base 50)    
Moisture  
Dew Point 47 °F    
Average Humidity 64    
Maximum Humidity 88    
Minimum Humidity 38    
Precipitation  
Precipitation 0.00 in - - ()
Sea Level Pressure  
Sea Level Pressure 30.30 in    
Wind  
Wind Speed 6 mph (SSE)    
Max Wind Speed 15 mph    
Max Gust Speed 23 mph    
Visibility 10 miles    
Events      
Averages and records for this station are not official NWS values.
T = Trace of Precipitation, MM = Missing Value Source: NWS Daily Summary

Daily Weather History Graph

Daily Weather History Graph

Search for Another Location

Airport or City:

Trip Planner

Search our weather history database for the weather conditions in past years. The results will help you decide how hot, cold, wet, or windy it might be!

Date:

Astronomy

Feb. 01, 2013 Rise Set
Actual Time 7:13 AM CST 6:04 PM CST
Civil Twilight 6:48 AM CST 6:29 PM CST
Nautical Twilight 6:20 AM CST 6:57 PM CST
Astronomical Twilight 5:52 AM CST 7:25 PM CST
Moon 11:37 PM CST (2/1) 10:19 AM CST (2/1)
Length of Visible Light 11h 40m
Length of Day
10h 51m
Waning Gibbous, 70% of the Moon is Illuminated
Feb 1
Waning Gibbous
Feb 3
Last Quarter
Feb 10
New
Feb 17
First Quarter
Feb 25
Full

Hourly Weather History & Observations

Time (CST) Temp. Dew Point Humidity Pressure Visibility Wind Dir Wind Speed Gust Speed Precip Events Conditions
12:53 AM 54.0 °F 46.9 °F 77% 30.30 in 10.0 mi SE 5.8 mph - N/A   Clear
1:53 AM 55.4 °F 48.2 °F 77% 30.29 in 10.0 mi SSE 4.6 mph - N/A   Clear
2:53 AM 55.9 °F 48.9 °F 77% 30.29 in 10.0 mi South 5.8 mph - N/A   Clear
3:53 AM 57.9 °F 50.0 °F 75% 30.30 in 10.0 mi South 5.8 mph - N/A   Clear
4:53 AM 57.9 °F 50.0 °F 75% 30.30 in 10.0 mi South 4.6 mph - N/A   Clear
5:53 AM 53.1 °F 46.9 °F 80% 30.31 in 10.0 mi Calm Calm - N/A   Clear
6:53 AM 51.1 °F 46.9 °F 86% 30.32 in 10.0 mi Calm Calm - N/A   Clear
7:53 AM 55.4 °F 51.8 °F 88% 30.33 in 10.0 mi East 3.5 mph - N/A   Clear
8:53 AM 62.1 °F 54.0 °F 75% 30.35 in 10.0 mi Calm Calm - N/A   Clear
9:53 AM 66.0 °F 46.0 °F 48% 30.37 in 10.0 mi SSE 5.8 mph - N/A   Clear
10:53 AM 68.0 °F 45.0 °F 43% 30.36 in 10.0 mi South 9.2 mph - N/A   Clear
11:53 AM 69.1 °F 42.1 °F 38% 30.34 in 10.0 mi South 11.5 mph - N/A   Clear
12:53 PM 69.1 °F 42.1 °F 38% 30.32 in 10.0 mi South 12.7 mph 19.6 mph N/A   Clear
1:53 PM 69.1 °F 42.1 °F 38% 30.30 in 10.0 mi SSE 15.0 mph - N/A   Clear
2:53 PM 69.1 °F 43.0 °F 39% 30.28 in 10.0 mi SSE 13.8 mph 23.0 mph N/A   Clear
3:53 PM 69.1 °F 44.1 °F 40% 30.27 in 10.0 mi SSE 13.8 mph - N/A   Clear
4:53 PM 66.9 °F 43.0 °F 42% 30.27 in 10.0 mi SE 11.5 mph - N/A   Clear
5:53 PM 64.0 °F 45.0 °F 50% 30.26 in 10.0 mi SE 9.2 mph - N/A   Clear
6:53 PM 57.9 °F 46.9 °F 67% 30.26 in 10.0 mi ESE 6.9 mph - N/A   Clear
7:53 PM 57.9 °F 48.0 °F 70% 30.26 in 10.0 mi SE 8.1 mph - N/A   Clear
8:53 PM 57.0 °F 48.9 °F 74% 30.27 in 10.0 mi SE 6.9 mph - N/A   Clear
9:53 PM 55.9 °F 48.0 °F 75% 30.26 in 10.0 mi SE 5.8 mph - N/A   Clear
10:53 PM 55.0 °F 48.0 °F 77% 30.25 in 10.0 mi ESE 5.8 mph - N/A   Clear
11:53 PM 55.0 °F 48.9 °F 80% 30.23 in 10.0 mi SE 5.8 mph - N/A   Clear